Change the Weather History Date:

Tuesday, March 25, 2014

  Actual Average (KSTP) Record (KSTP)
Temperature  
Mean Temperature 16 °F -  
Max Temperature 23 °F 43 °F 73 °F (2007)
Min Temperature 10 °F 27 °F 9 °F (2001)
Degree Days  
Heating Degree Days 48    
Moisture  
Dew Point 4 °F    
Average Humidity 59    
Maximum Humidity 92    
Minimum Humidity 46    
Precipitation  
Precipitation 0.00 in - - ()
Sea Level Pressure  
Sea Level Pressure 30.21 in    
Wind  
Wind Speed 11 mph (NW)    
Max Wind Speed 17 mph    
Max Gust Speed 24 mph    
Visibility 10 miles    
Events      
Averages and records for this station are not official NWS values.
T = Trace of Precipitation, MM = Missing Value Source: NWS Daily Summary

Daily Weather History Graph

Daily Weather History Graph

Search for Another Location

Airport or City:

Trip Planner

Search our weather history database for the weather conditions in past years. The results will help you decide how hot, cold, wet, or windy it might be!

Date:

Astronomy

Mar. 25, 2014 Rise Set
Actual Time 7:05 AM CDT 7:30 PM CDT
Civil Twilight 6:35 AM CDT 7:59 PM CDT
Nautical Twilight 6:01 AM CDT 8:34 PM CDT
Astronomical Twilight 5:25 AM CDT 9:10 PM CDT
Moon 3:40 AM CDT (3/25) 1:49 PM CDT (3/25)
Length of Visible Light 13h 24m
Length of Day
12h 25m
Waning Crescent, 32% of the Moon is Illuminated
Mar 25
Waning Crescent
Mar 30
New
Apr 7
First Quarter
Apr 15
Full
Apr 22
Last Quarter

Hourly Weather History & Observations

Time (CDT) Temp. Windchill Dew Point Humidity Pressure Visibility Wind Dir Wind Speed Gust Speed Precip Events Conditions
12:11 AM 23.0 °F 11.1 °F 14.0 °F 68% 30.09 in 10.0 mi NW 12.7 mph - N/A   Mostly Cloudy
12:30 AM 23.0 °F 10.6 °F 12.2 °F 63% 30.10 in 10.0 mi NW 13.8 mph 21.9 mph N/A   Scattered Clouds
12:51 AM 23.0 °F 11.1 °F 14.0 °F 68% 30.11 in 10.0 mi NNW 12.7 mph 21.9 mph N/A   Mostly Cloudy
1:11 AM 21.2 °F 8.3 °F 14.0 °F 74% 30.11 in 10.0 mi NNW 13.8 mph 18.4 mph N/A   Overcast
1:30 AM 19.4 °F 6.0 °F 10.4 °F 68% 30.12 in 10.0 mi NNW 13.8 mph 21.9 mph N/A   Mostly Cloudy
1:51 AM 19.4 °F 5.5 °F 5.0 °F 54% 30.13 in 10.0 mi NNW 15.0 mph - N/A   Scattered Clouds
2:11 AM 17.6 °F 3.7 °F 3.2 °F 53% 30.14 in 10.0 mi NNW 13.8 mph 18.4 mph N/A   Scattered Clouds
2:31 AM 17.6 °F 5.0 °F 1.4 °F 49% 30.14 in 10.0 mi NNW 11.5 mph 16.1 mph N/A   Clear
2:51 AM 15.8 °F 2.1 °F -0.4 °F 49% 30.15 in 10.0 mi NNW 12.7 mph 20.7 mph N/A   Clear
3:11 AM 14.0 °F 1.2 °F -0.4 °F 53% 30.16 in 10.0 mi NNW 10.4 mph - N/A   Clear
3:31 AM 14.0 °F -1.4 °F -2.2 °F 49% 30.16 in 10.0 mi NNW 15.0 mph 18.4 mph N/A   Clear
3:51 AM 14.0 °F 0.5 °F -2.2 °F 49% 30.17 in 10.0 mi NNW 11.5 mph 18.4 mph N/A   Clear
4:11 AM 14.0 °F 2.0 °F -0.4 °F 53% 30.18 in 10.0 mi NNW 9.2 mph - N/A   Clear
4:31 AM 12.2 °F -2.5 °F -0.4 °F 57% 30.18 in 10.0 mi NNW 12.7 mph - N/A   Clear
4:51 AM 12.2 °F -2.5 °F -0.4 °F 57% 30.19 in 10.0 mi NNW 12.7 mph 17.3 mph N/A   Clear
5:11 AM 12.2 °F -1.0 °F -0.4 °F 57% 30.20 in 10.0 mi NNW 10.4 mph 18.4 mph N/A   Clear
5:31 AM 12.2 °F -0.2 °F -0.4 °F 57% 30.21 in 10.0 mi NNW 9.2 mph - N/A   Clear
5:51 AM 10.4 °F -2.4 °F -0.4 °F 62% 30.21 in 10.0 mi NW 9.2 mph - N/A   Clear
6:11 AM 10.4 °F -1.5 °F -0.4 °F 62% 30.22 in 10.0 mi NW 8.1 mph - N/A   Clear
6:31 AM 10.4 °F -2.4 °F -0.4 °F 62% 30.22 in 10.0 mi NNW 9.2 mph 17.3 mph N/A   Clear
6:51 AM 10.4 °F -1.5 °F -0.4 °F 62% 30.24 in 10.0 mi WNW 8.1 mph - N/A   Clear
7:11 AM 10.4 °F -0.4 °F -0.4 °F 62% 30.25 in 10.0 mi NW 6.9 mph - N/A   Clear
7:31 AM 10.4 °F -1.5 °F -0.4 °F 62% 30.25 in 10.0 mi WNW 8.1 mph - N/A   Clear
7:51 AM 10.4 °F -3.3 °F -0.4 °F 62% 30.26 in 10.0 mi WNW 10.4 mph - N/A   Clear
8:11 AM 10.4 °F -4.1 °F -0.4 °F 62% 30.26 in 10.0 mi NW 11.5 mph - N/A   Clear
8:31 AM 10.4 °F -4.1 °F -0.4 °F 62% 30.26 in 10.0 mi NW 11.5 mph - N/A   Clear
8:51 AM 12.2 °F -1.0 °F -0.4 °F 57% 30.26 in 10.0 mi NW 10.4 mph 19.6 mph N/A   Clear
9:11 AM 12.2 °F -3.1 °F -0.4 °F 57% 30.26 in 10.0 mi NW 13.8 mph - N/A   Clear
9:31 AM 12.2 °F -2.5 °F -0.4 °F 57% 30.27 in 10.0 mi NW 12.7 mph - N/A   Clear
9:51 AM 12.2 °F -3.7 °F -0.4 °F 57% 30.27 in 10.0 mi NNW 15.0 mph - N/A   Clear
10:11 AM 14.0 °F 0.5 °F 1.4 °F 57% 30.28 in 10.0 mi NNW 11.5 mph 17.3 mph N/A   Scattered Clouds
10:31 AM 14.0 °F 1.2 °F -0.4 °F 53% 30.29 in 10.0 mi NW 10.4 mph 18.4 mph N/A   Scattered Clouds
10:51 AM 14.0 °F -0.2 °F 1.4 °F 57% 30.29 in 10.0 mi WNW 12.7 mph - N/A   Scattered Clouds
11:11 AM 14.0 °F -0.2 °F 1.4 °F 57% 30.28 in 10.0 mi WNW 12.7 mph - N/A   Scattered Clouds
11:31 AM 15.8 °F 1.4 °F 1.4 °F 53% 30.28 in 10.0 mi WNW 13.8 mph 20.7 mph N/A   Clear
11:51 AM 17.6 °F 3.7 °F 1.4 °F 49% 30.28 in 10.0 mi WNW 13.8 mph 19.6 mph N/A   Scattered Clouds
12:11 PM 17.6 °F 6.4 °F 1.4 °F 49% 30.27 in 10.0 mi NW 9.2 mph 17.3 mph N/A   Clear
12:31 PM 19.4 °F 6.0 °F 3.2 °F 49% 30.27 in 10.0 mi NW 13.8 mph - N/A   Clear
12:51 PM 19.4 °F 8.6 °F 3.2 °F 49% 30.25 in 10.0 mi NW 9.2 mph 17.3 mph N/A   Clear
1:11 PM 19.4 °F 7.9 °F 3.2 °F 49% 30.25 in 10.0 mi NW 10.4 mph - N/A   Scattered Clouds
1:31 PM 19.4 °F 4.5 °F 3.2 °F 49% 30.25 in 10.0 mi WNW 17.3 mph 24.2 mph N/A   Scattered Clouds
1:51 PM 21.2 °F 7.8 °F 3.2 °F 46% 30.25 in 10.0 mi WNW 15.0 mph 21.9 mph N/A   Clear
2:11 PM 21.2 °F 10.1 °F 3.2 °F 46% 30.24 in 10.0 mi NNW 10.4 mph 23.0 mph N/A   Scattered Clouds
2:31 PM 21.2 °F 10.9 °F 5.0 °F 50% 30.23 in 10.0 mi West 9.2 mph - N/A   Scattered Clouds
2:51 PM 21.2 °F 10.1 °F 5.0 °F 50% 30.22 in 10.0 mi WNW 10.4 mph - N/A   Overcast
3:11 PM 23.0 °F 10.1 °F 5.0 °F 46% 30.22 in 10.0 mi WNW 15.0 mph - N/A   Overcast
3:30 PM 21.2 °F 9.5 °F 5.0 °F 50% 30.21 in 10.0 mi WNW 11.5 mph 18.4 mph N/A   Mostly Cloudy
3:51 PM 23.0 °F 11.7 °F 8.6 °F 54% 30.21 in 10.0 mi West 11.5 mph 19.6 mph N/A   Overcast
4:11 PM 21.2 °F 8.9 °F 6.8 °F 54% 30.21 in 10.0 mi NW 12.7 mph 21.9 mph N/A   Overcast
4:31 PM 23.0 °F 10.6 °F 6.8 °F 50% 30.21 in 10.0 mi West 13.8 mph 19.6 mph N/A   Mostly Cloudy
4:51 PM 23.0 °F 11.1 °F 6.8 °F 50% 30.20 in 10.0 mi WNW 12.7 mph 17.3 mph N/A   Mostly Cloudy
5:11 PM 23.0 °F 11.1 °F 8.6 °F 54% 30.20 in 10.0 mi WNW 12.7 mph 18.4 mph N/A   Overcast
5:31 PM 23.0 °F 12.4 °F 6.8 °F 50% 30.19 in 10.0 mi WNW 10.4 mph 16.1 mph N/A   Mostly Cloudy
5:51 PM 23.0 °F 13.1 °F 8.6 °F 54% 30.19 in 10.0 mi West 9.2 mph 19.6 mph N/A   Mostly Cloudy
6:11 PM 23.0 °F 13.1 °F 8.6 °F 54% 30.19 in 10.0 mi WNW 9.2 mph - N/A   Overcast
6:31 PM 23.0 °F 15.8 °F 8.6 °F 54% 30.19 in 10.0 mi WNW 5.8 mph - N/A   Overcast
6:51 PM 23.0 °F 11.7 °F 8.6 °F 54% 30.19 in 10.0 mi West 11.5 mph - N/A   Overcast
7:11 PM 21.2 °F 10.1 °F 8.6 °F 58% 30.19 in 10.0 mi West 10.4 mph - N/A   Overcast
7:31 PM 21.2 °F 13.6 °F 8.6 °F 58% 30.19 in 10.0 mi West 5.8 mph - N/A   Overcast
7:51 PM 21.2 °F 13.6 °F 8.6 °F 58% 30.19 in 10.0 mi West 5.8 mph - N/A   Scattered Clouds
8:11 PM 19.4 °F 12.8 °F 8.6 °F 63% 30.18 in 10.0 mi West 4.6 mph - N/A   Clear
8:31 PM 19.4 °F 14.3 °F 6.8 °F 58% 30.18 in 10.0 mi West 3.5 mph - N/A   Clear
8:51 PM 19.4 °F - 8.6 °F 63% 30.18 in 10.0 mi Calm Calm - N/A   Clear
9:11 PM 17.6 °F - 8.6 °F 68% 30.17 in 10.0 mi Calm Calm - N/A   Clear
9:31 PM 15.8 °F - 8.6 °F 73% 30.17 in 10.0 mi Calm Calm - N/A   Clear
9:51 PM 14.0 °F - 8.6 °F 79% 30.18 in 10.0 mi Calm Calm - N/A   Clear
10:11 PM 12.2 °F - 6.8 °F 79% 30.18 in 10.0 mi Calm Calm - N/A   Clear
10:31 PM 12.2 °F - 6.8 °F 79% 30.17 in 10.0 mi Calm Calm - N/A   Clear
10:51 PM 10.4 °F - 5.0 °F 79% 30.17 in 10.0 mi Calm Calm - N/A   Clear
11:11 PM 12.2 °F - 6.8 °F 79% 30.17 in 10.0 mi Calm Calm - N/A   Clear
11:31 PM 10.4 °F - 8.6 °F 92% 30.17 in 10.0 mi Calm Calm - N/A   Clear
11:51 PM 10.4 °F - 5.0 °F 79% 30.17 in 10.0 mi Calm Calm - N/A   Clear